Location: Rometta
(44.2000°N, 10.0500°E)
Time: 11:52:37
(UTC+00:00)

EXPRESS MD2 - Pass Details

Date: 20 January 2021
Orbit: 260 x 3982 km, 49.9° (Epoch: 07 March)

Event Time Altitude Azimuth Distance (km) Brightness Sun altitude
Rises 17:35:43 0° 295° (WNW) 5,246 9.1 -14.6°
Reaches altitude 10° 17:40:08 10° 296° (WNW) 3,597 8.2 -15.4°
Maximum altitude 17:48:12 90° 100° (E) 786 4.0 -16.8°
Enters shadow 17:50:38 26° 118° (ESE) 1,224 4.6 -17.2°
